FENGYUN 1C DEB, 33728

Orbit data source: Space-Track

FENGYUN 1C DEB, 33728 is space debris in SSO originally from a launch on Mon, 10 May 1999 UTC launched from the Taiyaun Space Center, China (TSC). Fengyun 1C debris stems from the Chinese weather satellite Fengyun-1C, which was intentionally destroyed by a Chinese anti-satellite missile in 2007. This event dramatically increased the amount of space debris, with thousands of trackable fragments posing hazards to satellites and human spaceflight. The Fengyun 1C debris cloud has become a focal point in discussions about space sustainability and the need for international regulations to prevent the creation of new debris.

Loading next visibility...
Identifier
33728, 1999-025DHR
Orbit
SSO
Country
Flag of CNCN / PRC
Related business
Manufacturer
Unknown
Mission
Spacecraft
Bus & Motor
Unknown
Mass
Unknown
Launch date (UTC)
1999-05-10 (27 years ago)
Launch vehicle
Unknown
Launch site
Taiyaun Space Center, China (TSC)
Object type
Payload
Rocket body
Debris
Shape & HBR
Unknown shape, 0.1 m
Radar Cross Section
Medium (>0.1 m² and <1 m²)

Expand to show TLE details & history
Last TLE update: 19 hours ago

TLE from 19 hours ago
0 FENGYUN 1C DEB
1 33728U 99025DHR 26237.22894873  .00007475  00000-0  55494-3 0  9994
2 33728  98.9594 334.1291 0142196 112.1211 249.5171 14.95605349 21169
Epoch: 2026-08-25T05:29Z
TLE epoch observation values (Epoch: 2026-08-25T05:29:41.170Z)
Latitude
Longitude
-81.79174°
Altitude
619.363 km
Speed
7.53 km/s
True Right ascension
22h 16m 30s
True Declination
0° 00' 00"
Sunlit
Object was in full shadow at epoch
Visualization orbit readout
Latitude
Unknown
Longitude
Unknown
Altitude
Unknown
Speed
Unknown
Apparent Right ascension
Unknown
Apparent Declination
Unknown
Sunlit
N/A
Visualization observer readout
Local Sidereal Time
15:53:09
Azimuth
Unknown
Elevation
Unknown
Doppler factor
Unknown
Orbital elements
Apogee altitude
676.472 km
Perigee altitude
478.657 km
Semi-major axis
6,955.701 km
Eccentricity
0.01422
Inclination
98.9594°
RAAN
334.1291°
Arg. of periapsis
112.1211°
True anomaly
248.00029°
Mean anomaly
249.5171°
Eccentric anomaly
248.75773°
Mean motion
3.74138 °/min
Orbital period
96.22 mins
BSTAR
0.00055494
Loading maneuver chart data...
Computing Atmospheric mass density...

Documentation

Showing up to 5 results
|